Tracking 20623 objects as of 3-Apr-2020
HD Live streaming from Space Station
objects crossing your sky now

IUS R/B(2)

Track IUS R/B(2) now!


NORAD ID: 20932
Int'l Code: 1990-095D
Perigee: 36,032.2 km
Apogee: 36,130.7 km
Inclination: 15.3 °
Period: 1,450.8 minutes
Semi major axis: 42452 km
RCS: Unknown
Launch date: November 13, 1990
Source: United States (US)
Launch site: AIR FORCE EASTERN TEST RANGE (AFETR)

Note: This is a ROCKET BODY
aabbcc
Your satellite tracking list
Your tracking list is empty




NASA's NSSDC Master Catalog

Two Line Element Set (TLE):
1 20932U 90095D   20093.86395596  .00000045  00000-0  00000+0 0  9992
2 20932  15.2877   0.1846 0011601 354.5226   5.4541  0.99254238  3210
Source of the keplerian elements: McCants